Weather History for Naples, FL

Change the Weather History Date:

Saturday, December 29, 2012

  Actual Average Record
Temperature  
Mean Temperature 75 °F 65 °F  
Max Temperature 78 °F 75 °F 88 °F (1990)
Min Temperature 71 °F 55 °F 38 °F (1977)
Degree Days  
Heating Degree Days 0 3  
Month to date heating degree days 25 55  
Since 1 July heating degree days 38 69  
Cooling Degree Days 10 3  
Month to date cooling degree days 160 116  
Year to date cooling degree days 4126 3935  
Growing Degree Days 20 (Base 50)    
Moisture  
Dew Point 69 °F    
Average Humidity 91    
Maximum Humidity 100    
Minimum Humidity 82    
Precipitation  
Precipitation 0.00 in 0.03 in 0.78 in (1942)
Month to date precipitation 1.78 1.37  
Year to date precipitation 37.93 51.81  
Snow  
Snow 0.00 in - - ()
Month to date snowfall 0.0  
Since 1 July snowfall 0.0  
Snow Depth 0.00 in    
Sea Level Pressure  
Sea Level Pressure 30.00 in    
Wind  
Wind Speed 11 mph (SW)    
Max Wind Speed 16 mph    
Max Gust Speed 21 mph    
Visibility 8 miles    
Events      
T = Trace of Precipitation, MM = Missing Value Source: NWS Daily Summary

Daily Weather History Graph

Daily Weather History Graph

Search for Another Location

Airport:

Trip Planner

Search our weather history database for the weather conditions in past years. The results will help you decide how hot, cold, wet, or windy it might be!

Date:

Astronomy

Dec. 29, 2012 Rise Set
Actual Time 7:13 AM EST 5:45 PM EST
Civil Twilight 6:48 AM EST 6:10 PM EST
Nautical Twilight 6:19 AM EST 6:39 PM EST
Astronomical Twilight 5:51 AM EST 7:07 PM EST
Moon 7:07 PM EST (12/29) 7:54 AM EST (12/29)
Length of Visible Light 11h 21m
Length of Day
10h 31m
Full, 98% of the Moon is Illuminated
Dec 29
Full
Jan 4
Last Quarter
Jan 11
New
Jan 18
First Quarter
Jan 26
Full

Hourly Weather History & Observations

Time (EST) Temp. Dew Point Humidity Pressure Visibility Wind Dir Wind Speed Gust Speed Precip Events Conditions
12:53 AM 72.0 °F 70.0 °F 93% 29.95 in 10.0 mi SSE 6.9 mph - N/A   Clear
1:53 AM 72.0 °F 71.1 °F 97% 29.94 in 10.0 mi SSE 8.1 mph - N/A   Clear
2:40 AM 71.6 °F 71.6 °F 100% 29.94 in 10.0 mi SSE 8.1 mph - N/A   Scattered Clouds
2:53 AM 72.0 °F 71.1 °F 97% 29.94 in 9.0 mi South 8.1 mph - N/A   Mostly Cloudy
3:11 AM 71.6 °F 71.6 °F 100% 29.94 in 9.0 mi SSE 9.2 mph - N/A   Mostly Cloudy
3:25 AM 71.6 °F 71.6 °F 100% 29.94 in 9.0 mi SSE 9.2 mph - N/A   Scattered Clouds
3:39 AM 71.6 °F 71.6 °F 100% 29.94 in 9.0 mi South 8.1 mph - N/A   Scattered Clouds
3:50 AM 71.6 °F 71.6 °F 100% 29.94 in 9.0 mi South 6.9 mph - N/A   Mostly Cloudy
3:53 AM 72.0 °F 72.0 °F 100% 29.94 in 9.0 mi South 8.1 mph - N/A   Mostly Cloudy
4:13 AM 71.6 °F 71.6 °F 100% 29.94 in 9.0 mi South 9.2 mph - N/A   Mostly Cloudy
4:53 AM 73.0 °F 72.0 °F 96% 29.94 in 9.0 mi South 8.1 mph - N/A   Overcast
5:40 AM 73.4 °F 73.4 °F 100% 29.95 in 9.0 mi South 10.4 mph - N/A   Overcast
5:53 AM 73.0 °F 73.0 °F 100% 29.96 in 8.0 mi South 10.4 mph - N/A   Mostly Cloudy
7:53 AM 72.0 °F 72.0 °F 100% 30.01 in 6.0 mi SSW 12.7 mph - N/A   Overcast
8:06 AM 71.6 °F 71.6 °F 100% 30.02 in 6.0 mi SSW 12.7 mph - N/A   Mostly Cloudy
8:43 AM 73.4 °F 73.4 °F 100% 30.01 in 6.0 mi SSW 11.5 mph - N/A   Clear
8:53 AM 73.0 °F 73.0 °F 100% 30.01 in 6.0 mi South 12.7 mph - N/A   Clear
9:53 AM 75.0 °F 73.9 °F 96% 30.04 in 6.0 mi SSW 13.8 mph - N/A   Mostly Cloudy
10:53 AM 75.0 °F 73.0 °F 94% 30.04 in 6.0 mi SW 11.5 mph - N/A   Overcast
11:53 AM 77.0 °F 73.0 °F 88% 30.02 in 9.0 mi SW 13.8 mph - N/A   Partly Cloudy
12:53 PM 75.9 °F 73.0 °F 91% 30.00 in 7.0 mi SW 13.8 mph - N/A   Scattered Clouds
1:53 PM 75.9 °F 73.0 °F 91% 29.96 in 7.0 mi SW 11.5 mph - N/A   Partly Cloudy
2:38 PM 75.2 °F 73.4 °F 94% 29.97 in 7.0 mi WSW 10.4 mph - N/A   Partly Cloudy
2:53 PM 77.0 °F 72.0 °F 84% 29.96 in 8.0 mi WSW 12.7 mph - N/A   Scattered Clouds
3:02 PM 75.2 °F 71.6 °F 89% 29.96 in 8.0 mi West 9.2 mph - N/A   Mostly Cloudy
3:39 PM 75.2 °F 71.6 °F 89% 29.96 in 9.0 mi West 8.1 mph - N/A   Mostly Cloudy
3:46 PM 75.2 °F 71.6 °F 89% 29.97 in 8.0 mi West 10.4 mph - N/A   Mostly Cloudy
3:53 PM 73.9 °F 72.0 °F 93% 29.96 in 8.0 mi West 9.2 mph - N/A   Mostly Cloudy
4:06 PM 73.4 °F 71.6 °F 94% 29.97 in 7.0 mi West 13.8 mph - N/A   Overcast
4:53 PM 71.1 °F 66.9 °F 87% 29.99 in 6.0 mi NW 10.4 mph 18.4 mph N/A   Overcast
6:53 PM 66.9 °F 63.0 °F 87% 30.05 in 9.0 mi NW 13.8 mph 20.7 mph N/A   Overcast
7:53 PM 66.0 °F 62.1 °F 87% 30.08 in 9.0 mi NW 13.8 mph 20.7 mph N/A   Mostly Cloudy
8:53 PM 64.9 °F 59.0 °F 81% 30.11 in 10.0 mi NW 12.7 mph 18.4 mph N/A   Overcast
9:33 PM 64.4 °F 57.2 °F 77% 30.12 in 10.0 mi NW 11.5 mph 18.4 mph N/A   Scattered Clouds
9:53 PM 63.0 °F 57.0 °F 81% 30.13 in 10.0 mi NW 8.1 mph 17.3 mph N/A   Mostly Cloudy
10:53 PM 62.1 °F 55.0 °F 78% 30.15 in 10.0 mi NNW 11.5 mph 19.6 mph N/A   Scattered Clouds
11:53 PM 61.0 °F 54.0 °F 78% 30.15 in 10.0 mi NNW 10.4 mph 18.4 mph N/A   Clear